パンスターズ彗星

C/2016 Q2 ( PanSTARRS )

English version
Home page
Updated on March 3, 2018

---------------------------------------------------------------------

・ プロフィール

発見日 2016年8月26日
発見光度 21.6等
発見者 Pan-STARRS 1 telescope (Haleakala)

・ 写真集

・ 軌道要素

Epoch 2021 May 26.0 TT = JDT 2459360.5
T 2021 May 11.76613 TT                                  MPCW
q   7.0813839            (2000.0)            P               Q
z  -0.0001285      Peri.   84.52992     -0.12668558     -0.80692954
 +/-0.0000098      Node   322.29578     -0.66687850     +0.49982394
e   1.0009101      Incl.  109.38858     +0.73431862     +0.31470739
From 68 observations 2016 Aug. 26-2017 Oct. 14, mean residual 0".5.

・ 星図

・ 光度変化

        m1 = 4.0 + 5 logΔ + 10.0 log r

---------------------------------------------------------------------

軌道要素はM.P.E.C. 2018-B155に掲載されたものです。
星図はステラナビゲータ Ver.10 (アストロアーツ) で作成したものです。
光度グラフはComet for Windowsで作成したものです。

---------------------------------------------------------------------

Copyright(C) Seiichi Yoshida (comet@aerith.net). All rights reserved.